[Iaude] MPEC R168: 2023 RE6 [a=2.36,e=0.72,i=10.4,H=21.1,PHA]

mpec at marsden.cfa.harvard.edu mpec at marsden.cfa.harvard.edu
Tue Sep 12 23:24:57 EDT 2023


M.P.E.C. 2023-R168                           Issued 2023 September 13, 03:22 UT

     The Minor Planet Electronic Circulars contain information on unusual
         minor planets, routine data on comets and natural satellites,
         and occasional editorial announcements.  They are published
    on behalf of Division F of the International Astronomical Union by the
          Minor Planet Center, Smithsonian Astrophysical Observatory,
                          Cambridge, MA 02138, U.S.A.
			  
             Prepared using the Tamkin Foundation Computer Network

                              MPC at CFA.HARVARD.EDU
            URL https://www.minorplanetcenter.net/    ISSN 1523-6714

                                    2023 RE6                                    


Observations:
     K23R06E 1C2023 09 07.42227 02 08 42.38 +38 50 13.5          18.6 GVER168703
     K23R06E 1C2023 09 07.43409 02 08 26.47 +38 49 20.0          18.7 GVER168703
     K23R06E 1C2023 09 07.44004 02 08 18.53 +38 48 53.9          18.6 GVER168703
     K23R06E* C2023 09 12.45408700 52 23.827+32 26 54.20         18.75cVER168T05
     K23R06E  C2023 09 12.45589600 52 22.750+32 26 45.82         19.00cVER168T05
     K23R06E  C2023 09 12.45906100 52 20.690+32 26 33.07         18.83cVER168T05
     K23R06E  C2023 09 12.46449800 52 17.273+32 26 10.28         18.68cVER168T05
     K23R06E 1C2023 09 12.79839 00 48 59.30 +32 02 25.4          19.3 VXER168033
     K23R06E 1C2023 09 12.79867 00 48 59.11 +32 02 24.2          19.5 VXER168033
     K23R06E 1C2023 09 12.79896 00 48 58.96 +32 02 23.1          19.2 VXER168033
     K23R06E KC2023 09 12.80931500 48 52.87 +32 01 43.0          18.1 GVER168G34
     K23R06E KC2023 09 12.81156 00 48 52.217+32 01 43.57         18.1 VqER168L90
     K23R06E KC2023 09 12.81304000 48 50.65 +32 01 27.6          18.4 GVER168G34
     K23R06E KC2023 09 12.81676200 48 48.47 +32 01 13.4          18.3 GVER168G34
     K23R06E KC2023 09 12.81969 00 48 47.374+32 01 11.46         18.9 VqER168L90
     K23R06E KC2023 09 12.82048700 48 46.29 +32 00 59.1          18.4 GVER168G34
     K23R06E KC2023 09 12.82421200 48 44.02 +32 00 43.8          17.9 GVER168G34
     K23R06E KC2023 09 12.82726 00 48 42.881+32 00 41.36         18.6 VqER168L90
     K23R06E KC2023 09 12.85149600 48 28.26 +31 58 58.5          18.6 GXER168595
     K23R06E KC2023 09 12.85530800 48 26.00 +31 58 43.9          18.7 GXER168595
     K23R06E KC2023 09 12.85911800 48 23.69 +31 58 28.4          18.6 GXER168595
     K23R06E KC2023 09 12.87152 00 48 16.58 +31 57 40.0                VER168104
     K23R06E KC2023 09 12.87909 00 48 12.11 +31 57 10.2          18.7 GVER168104
     K23R06E KC2023 09 12.88655 00 48 07.69 +31 56 40.5          18.9 GVER168104
     K23R06E KC2023 09 12.90006 00 47 59.08 +31 55 48.2          18.4 VqER168L04
     K23R06E KC2023 09 12.90453 00 47 56.47 +31 55 29.9          18.5 VqER168L04
     K23R06E KC2023 09 12.90579 00 47 55.72 +31 55 24.8          18.5 VqER168L04
     K23R06E KC2023 09 12.91109 00 47 52.56 +31 55 04.0          18.7 VqER168L04
     K23R06E KC2023 09 12.93345500 47 39.993+31 53 33.96         18.4 GVER168K63
     K23R06E KC2023 09 12.93752900 47 37.566+31 53 17.48         18.6 GVER168K63
     K23R06E KC2023 09 12.94149300 47 35.238+31 53 02.33         18.7 GVER168K63
     K23R06E 1C2023 09 12.94832 00 47 29.74 +31 52 36.8          19.1 GVER168C40
     K23R06E IC2023 09 12.94949800 47 30.33 +31 52 30.1          18.5 GVER168L01
     K23R06E KC2023 09 12.95097000 47 29.45 +31 52 23.9          18.6 GVER168L01
     K23R06E KC2023 09 12.95244200 47 28.58 +31 52 17.6          18.7 GVER168L01
     K23R06E 1C2023 09 12.95281 00 47 27.06 +31 52 18.5          19.2 GVER168C40
     K23R06E 1C2023 09 12.95722 00 47 24.46 +31 52 00.6          19.1 GVER168C40
     K23R06E 1C2023 09 12.96858 00 47 17.72 +31 51 14.6          18.2 GVER168C40
     K23R06E 1C2023 09 12.96942 00 47 17.23 +31 51 11.2          18.1 GVER168C40
     K23R06E 1C2023 09 12.97166 00 47 15.90 +31 51 02.0          18.1 GVER168C40
     K23R06E 1C2023 09 12.97411 00 47 14.45 +31 50 52.1          18.2 GVER168C40
     K23R06E 1C2023 09 12.97467 00 47 14.13 +31 50 49.9          18.2 GVER168C40
     K23R06E 1C2023 09 12.97874 00 47 11.71 +31 50 33.4          18.1 GVER168C40
     K23R06E 1C2023 09 12.98963 00 47 05.33 +31 49 48.8          18.9 GVER168C40
     K23R06E 1C2023 09 12.99433 00 47 02.54 +31 49 29.7          18.5 GVER168C40
     K23R06E 1C2023 09 12.99895 00 46 59.81 +31 49 10.8          18.7 GVER168C40

Observer details:
033 Karl Schwarzschild Observatory, Tautenburg.  Observers S. Melnikov, C.
    Hoegner, F. Ludwig, M. Hartmann, B. Stecklum.  Measurer B. Stecklum.
    1.34-m f/3 Schmidt + CCD.
104 San Marcello Pistoiese.  Observers P. Bacci, M. Maestripieri.  Measurer P.
    Bacci.  0.60-m f/4.0 reflector + CCD.
595 Farra d'Isonzo.  Observer E. Pettarin.  0.61-m f/4.5 reflector + CCD.
703 Catalina Sky Survey.  Observer J. K. Hogan.  Measurers B. Gray, D. Rankin,
    F. C. Shelly.  0.68-m Schmidt + 10K CCD.
C40 Kuban State University Astrophysical Observatory.  Observers A. Ivanov, A.
    Barcov, V. Ivanov, V. Lysenko, N. Yakovenko, N. Ivanova, N. Gorbunov, G.
    Kurbatov, P. Shchukin, V. Roshchupko.  Measurer A. Ivanov.  0.51-m f/8
    reflector + CCD.
G34 Oberfrauendorf.  Observer T. Felber.  0.35-m f/6.3 Schmidt-Cassegrain +
    CCD.
K63 G. Pascoli Observatory, Castelvecchio Pascoli.  Observer R. Bacci.  0.41-m
    f/3.75 0.41m f/3.2  Newton + CCD.
L01 Visnjan Observatory, Tican.  Observer K. Korlevic.  1.0-m f/2.9 reflector
    + CCD.
L04 ROASTERR-1 Observatory, Cluj-Napoca.  Observer L. Hudin.  0.3-m f/5
    reflector + CCD.
L90 ABObservatory, Rosarno.  Observer A. Brosio.  0.30-m f/4.0 reflector +
    CCD.
T05 ATLAS-HKO, Haleakala.  Observers L. Denneau, R. Siverd, J. Tonry, H.
    Weiland.  Measurers L. Denneau, N. Erasmus, A. Fitzsimmons, A. Lawrence,
    J. Robinson, R. Siverd, J. Tonry, H. Weiland.  0.5-m Reflector + CCD.

Orbital elements:
2023 RE6                                            PHA, Earth MOID = 0.0276 AU
Epoch 2023 Sept. 13.0 TT = JDT 2460200.5                Veres                   
M  15.12293              (2000.0)            P               Q                  
n   0.27130933     Peri.  288.26525     -0.10359431     +0.99175406             
a   2.3631587      Node   335.41115     -0.83027906     -0.12799346             
e   0.7239256      Incl.   10.44639     -0.54763574     +0.00644628             
P   3.63           H   21.11          G   0.15           U   9                  
Residuals in seconds of arc
230907 703  0.5+  0.2+    230912 G34  0.7-  0.1+    230912 L01  0.0   0.0
230907 703  0.4-  0.6-    230912 L90  0.3+  0.1-    230912 L01  0.1-  0.3-
230907 703  0.1-  0.1-    230912 595  0.1+  0.5-    230912 L01  0.1-  0.7-
230912 T05  0.7-  0.6+    230912 595  0.0   0.1-    230912 C40  0.2+  0.3-
230912 T05  0.3+  0.3-    230912 595  0.7-  0.5-    230912 C40  0.4+  0.4-
230912 T05  0.1-  0.0     230912 104  0.1-  0.4-    230912 C40  0.1+  0.2-
230912 T05  0.6+  0.3-    230912 104  0.1-  0.2-    230912 C40  0.2+  0.2-
230912 033  0.1+  0.1-    230912 104  0.3-  0.4-    230912 C40  0.2+  0.3-
230912 033  0.2-  0.2-    230912 L04  0.2-  0.3+    230912 C40  0.1+  0.2-
230912 033  0.1+  0.1-    230912 L04  0.3+  0.1-    230912 C40  0.2+  0.2-
230912 G34  0.2+  0.1+    230912 L04  0.2+  0.2-    230912 C40  0.0   0.1-
230912 L90  1.0+  0.2+    230912 L04  0.0   0.2+    230912 C40  0.5+  0.4-
230912 G34  0.1-  0.5-    230912 K63  0.1-  0.6-    230912 C40  0.2+  0.3-
230912 G34  0.1+  0.1+    230912 K63  0.3-  0.9-    230912 C40  0.1+  0.3-
230912 L90  0.5+  0.1+    230912 K63  0.1-  0.2-
230912 G34  0.2+  0.6+    230912 C40  0.5+  0.2-

Ephemeris:
2023 RE6                 a,e,i = 2.36, 0.72, 10                  q = 0.6524
Date    TT    R. A. (2000) Decl.     Delta      r    Elong.  Phase     V
2023 08 14    09 40 59.5 +02 38 02   0.2245  0.7951    12.2   164.4    30.2
...
2023 08 29    07 03 32.0 +30 16 40   0.09304 0.9552    51.7   123.9    21.0
...
2023 09 06    02 43 08.8 +40 25 54   0.1030  1.0477   109.9    64.8    18.6
...
2023 09 12    00 57 10.9 +32 58 47   0.1485  1.1180   135.8    38.9    18.8
2023 09 13    00 47 00.6 +31 49 24   0.1576  1.1298   138.8    36.0    18.8
2023 09 14    00 38 07.9 +30 44 11   0.1670  1.1415   141.4    33.3    18.9
...
2023 09 20    00 02 40.2 +25 32 29   0.2280  1.2118   152.8    22.3    19.4
...
2023 09 28    23 39 41.4 +21 02 58   0.3190  1.3047   158.8    16.2    20.1
...
2023 10 13    23 24 28.6 +16 13 49   0.5149  1.4745   152.7    18.1    21.4

M. P. C. Staff               (C) Copyright 2023 MPC           M.P.E.C. 2023-R168





More information about the Iaude mailing list